Wind_Speed
62 64 67 69 70 70 69 68 67 65 63 63 62 61 62 63 63 63 63 63 63 63 63 63 63 63 63 63 63 63 61 60 58 57 56 55 54 53
65 67 69 70 70 69 68 68 68 68 67 65 64 62 61 61 61 61 61 61 61 61 61 61 61 61 62 63 64 64 63 62 60 58 57 56 54 53
66 68 69 70 69 69 69 69 68 68 68 64 62 59 55 53 51 51 52 51 51 52 52 53 53 54 56 59 61 62 62 62 60 59 57 56 54 53
68 69 69 69 69 68 68 67 65 63 61 56 51 47 43 41 41 40 39 39 40 42 43 44 44 45 47 51 53 56 57 58 58 58 57 56 54 53
68 68 68 68 67 66 64 60 56 52 49 45 39 36 35 35 33 32 32 32 33 34 35 36 37 39 41 43 45 47 50 52 54 55 55 54 54 52
66 67 66 65 63 59 54 49 46 42 40 36 31 30 30 29 29 28 28 28 28 29 30 31 32 33 35 36 38 40 43 45 48 49 51 52 52 52
64 64 62 58 53 49 45 42 39 36 33 29 27 26 27 27 26 26 24 24 24 26 26 27 27 28 30 31 32 34 36 38 41 43 46 48 49 50
60 57 53 49 46 43 40 37 33 30 27 24 23 23 24 23 22 20 19 19 19 20 20 20 20 21 22 23 25 27 29 31 34 38 42 44 47 49
52 48 44 42 40 37 33 30 27 25 22 20 19 20 18 17 15 14 13 12 12 14 13 13 13 14 15 16 17 20 23 27 30 33 37 40 43 45
43 41 39 37 34 30 26 23 20 17 15 14 14 13 12 11 10 9 8 8 7 7 7 7 7 8 9 11 13 16 19 23 26 29 33 37 40 42
37 36 34 30 27 22 18 14 10 9 9 9 8 8 7 7 6 6 6 6 5 5 5 5 6 7 8 9 12 15 18 22 25 27 30 34 37 39
32 31 28 24 19 14 10 7 5 4 5 4 4 5 5 6 6 7 7 7 7 7 7 7 7 8 9 11 12 14 17 20 24 27 30 33 35 37
25 23 19 16 11 8 6 5 5 5 5 6 6 6 7 7 8 9 10 10 10 9 8 8 7 8 9 11 12 15 17 20 23 25 28 31 34 35
18 15 12 9 7 7 7 7 8 8 8 8 8 8 8 9 10 11 11 11 9 7 5 3 3 4 5 7 9 11 15 18 22 24 27 29 32 33
13 10 7 6 7 8 9 10 10 10 9 9 9 9 10 11 12 12 12 11 8 5 5 4 4 4 3 3 5 8 11 15 19 22 26 28 30 32
8 6 6 7 9 10 10 10 10 10 9 9 10 11 12 13 13 13 13 12 10 9 10 10 9 8 8 6 4 3 6 9 14 19 23 26 29 31
5 5 7 9 11 11 11 11 10 9 10 11 12 13 13 14 15 15 15 15 14 12 12 13 13 13 13 13 12 11 10 10 11 14 20 24 28 30
4 7 10 12 12 12 11 10 10 10 10 12 13 14 15 16 17 17 18 17 16 16 16 17 18 19 19 19 18 18 17 16 16 17 19 22 27 30
8 11 12 13 12 12 11 11 10 11 11 13 14 14 16 17 18 20 21 20 19 18 19 20 21 22 22 21 22 24 24 23 22 21 21 22 24 28
12 13 13 13 13 12 12 11 11 11 12 13 14 15 16 18 20 21 22 22 22 22 22 22 23 23 23 23 23 26 27 27 26 25 24 23 23 25
13 14 14 13 13 12 11 11 11 12 12 13 14 16 17 19 21 22 23 24 24 25 24 24 24 24 23 23 24 26 27 28 28 28 28 26 23 22
14 14 13 13 12 12 11 11 11 11 12 13 14 16 17 19 20 22 23 24 25 26 26 26 26 25 25 25 24 24 26 27 27 27 28 29 27 25
13 12 12 12 12 11 11 10 10 11 12 13 15 16 17 18 19 20 21 23 24 25 27 27 28 27 27 26 26 26 27 27 26 25 25 26 26 25
Wind_Direction
298 299 299 299 299 298 297 296 294 292 290 289 287 286 284 282 280 278 276 273 271 269 267 265 263 261 259 258 256 255 254 253 251 250 249 248 247 246
300 301 301 300 300 298 297 296 295 293 291 290 288 287 285 282 280 278 275 273 271 269 267 265 262 260 258 256 255 254 253 251 250 248 247 245 245 243
302 302 301 301 299 298 297 296 295 294 292 290 289 288 286 284 282 279 277 274 271 268 267 264 262 259 257 254 253 251 250 249 247 245 243 242 241 240
303 302 302 300 299 298 297 296 295 294 293 292 291 289 286 285 284 282 279 275 271 267 265 262 260 257 254 252 250 248 247 245 243 241 239 238 237 235
303 302 302 301 299 298 297 297 296 295 295 294 291 288 287 287 286 284 281 276 272 268 264 261 258 256 254 251 248 245 243 241 239 237 235 233 231 230
303 303 302 301 300 300 299 298 297 296 295 294 291 288 289 288 287 285 281 277 273 268 263 259 256 254 252 250 247 243 240 237 234 232 230 228 226 224
304 304 303 303 302 302 301 300 298 296 294 292 292 290 290 289 288 287 283 277 272 268 263 259 256 253 251 248 244 240 236 233 230 226 224 222 219 218
305 305 305 305 305 304 303 300 297 296 294 292 292 292 292 292 291 289 283 277 272 269 265 261 258 254 249 244 239 234 230 226 223 219 217 215 213 213
307 308 308 309 308 306 303 299 296 294 293 293 294 295 298 297 296 292 288 284 275 269 267 262 256 249 244 239 232 225 221 217 214 211 210 209 209 209
310 312 313 313 312 310 307 301 297 294 294 296 297 301 304 305 308 305 300 293 283 276 270 258 251 244 238 232 226 220 214 209 207 206 205 205 205 207
314 317 319 319 318 316 313 309 303 299 300 303 308 315 323 332 338 338 331 322 307 296 286 268 256 249 242 234 226 219 214 210 207 205 205 205 206 207
319 321 323 324 326 328 329 332 331 330 334 343 359 9 8 6 0 353 345 336 324 308 292 278 264 254 245 239 231 225 219 215 213 211 209 209 209 209
323 325 328 332 340 351 9 29 40 44 48 50 42 30 21 10 358 348 339 330 321 308 294 279 264 253 246 239 234 229 224 220 217 215 214 213 213 212
330 334 340 353 12 35 52 60 65 67 62 55 43 31 19 5 355 348 343 339 334 326 316 295 249 233 227 224 223 223 223 220 218 216 214 213 212 210
341 349 5 28 51 62 69 74 74 69 62 52 39 26 15 5 1 1 2 3 8 29 55 82 105 118 139 173 206 219 221 219 216 214 212 210 209 207
353 9 40 60 68 73 77 79 75 67 57 43 32 23 17 16 19 24 30 37 50 67 77 85 85 89 95 100 113 170 203 209 210 209 206 203 201 200
16 51 70 75 77 78 78 76 71 64 50 38 33 33 35 37 38 44 50 56 67 74 78 82 86 89 91 88 85 94 109 128 155 177 187 190 189 189
69 85 86 84 82 79 76 72 67 57 46 41 43 49 51 50 52 54 58 66 72 79 86 89 88 88 86 85 86 88 93 101 112 129 148 163 172 177
99 97 91 85 79 76 75 70 63 56 50 50 55 59 61 63 62 60 61 68 75 83 88 92 91 90 87 85 86 89 91 95 102 111 125 141 156 165
104 98 90 84 79 76 73 69 62 58 58 60 66 70 72 72 68 65 65 68 73 81 88 91 92 92 89 87 88 91 93 94 98 104 113 125 140 152
104 98 90 84 79 74 70 67 64 64 66 68 74 79 81 79 75 72 70 70 72 76 80 85 88 90 89 90 92 93 96 98 101 105 108 112 122 134
105 97 88 79 74 71 67 67 68 71 75 78 82 87 89 84 80 77 74 73 72 73 74 76 79 82 85 89 92 93 95 98 101 108 113 117 121 126
104 94 83 75 71 68 66 70 74 79 86 89 91 94 94 91 87 83 79 76 75 74 75 76 78 80 82 84 86 88 91 95 98 101 107 113 119 125
Height
5678 5672 5665 5658 5650 5643 5636 5629 5624 5621 5618 5613 5609 5603 5599 5596 5594 5592 5592 5592 5592 5592 5594 5597 5599 5602 5606 5610 5615 5620 5625 5631 5637 5642 5648 5653 5659 5665
5663 5656 5648 5640 5633 5625 5618 5611 5604 5600 5597 5594 5588 5584 5579 5575 5573 5571 5570 5570 5570 5571 5572 5575 5578 5582 5585 5589 5594 5600 5606 5612 5619 5625 5631 5638 5644 5650
5647 5640 5632 5623 5616 5608 5600 5593 5586 5580 5576 5574 5568 5564 5559 5556 5553 5551 5550 5550 5550 5551 5552 5554 5558 5561 5565 5569 5574 5579 5586 5593 5600 5607 5614 5622 5629 5636
5631 5623 5615 5606 5599 5590 5583 5575 5568 5562 5557 5554 5551 5547 5543 5540 5538 5536 5535 5534 5534 5535 5536 5538 5540 5543 5546 5550 5555 5560 5566 5573 5581 5589 5598 5606 5614 5622
5615 5606 5598 5590 5582 5573 5565 5559 5552 5547 5542 5539 5537 5534 5531 5528 5526 5525 5523 5522 5522 5522 5523 5525 5527 5529 5531 5534 5538 5543 5549 5556 5564 5572 5580 5590 5599 5608
5599 5590 5581 5573 5565 5557 5551 5544 5539 5535 5531 5528 5526 5524 5522 5519 5517 5516 5514 5513 5512 5512 5512 5513 5515 5517 5519 5522 5526 5530 5535 5541 5548 5556 5565 5574 5584 5594
5584 5575 5566 5558 5550 5543 5538 5533 5528 5524 5521 5519 5517 5516 5514 5512 5510 5508 5506 5505 5504 5503 5503 5504 5505 5507 5509 5511 5514 5518 5523 5529 5535 5543 5552 5561 5572 5582
5570 5561 5553 5545 5538 5532 5527 5522 5518 5515 5513 5512 5510 5509 5507 5505 5503 5501 5500 5499 5498 5497 5496 5497 5498 5499 5501 5503 5506 5510 5514 5520 5526 5533 5542 5551 5561 5572
5557 5550 5542 5535 5528 5522 5517 5513 5510 5508 5507 5506 5505 5503 5502 5500 5498 5497 5495 5494 5493 5492 5492 5492 5493 5494 5495 5497 5500 5503 5508 5513 5519 5526 5534 5543 5553 5563
5547 5540 5533 5526 5520 5514 5510 5507 5505 5503 5502 5502 5501 5500 5498 5497 5495 5494 5492 5491 5490 5489 5489 5490 5490 5491 5492 5494 5497 5500 5504 5508 5514 5521 5529 5537 5547 5556
5539 5532 5526 5520 5514 5509 5505 5503 5502 5501 5501 5500 5500 5498 5497 5495 5494 5492 5491 5490 5489 5488 5488 5488 5488 5489 5490 5492 5494 5497 5501 5505 5511 5517 5525 5533 5541 5550
5533 5527 5521 5516 5511 5507 5504 5502 5502 5501 5501 5500 5500 5499 5497 5496 5494 5492 5491 5489 5488 5487 5486 5486 5486 5487 5488 5489 5491 5494 5497 5502 5507 5513 5520 5528 5536 5545
5530 5524 5519 5514 5511 5508 5505 5504 5503 5503 5502 5502 5501 5500 5498 5497 5495 5493 5490 5488 5486 5484 5483 5483 5483 5483 5484 5486 5488 5490 5493 5498 5502 5508 5515 5522 5530 5539
5527 5522 5518 5515 5512 5509 5508 5507 5506 5506 5505 5504 5503 5502 5500 5498 5495 5492 5489 5486 5483 5482 5480 5480 5480 5481 5482 5483 5485 5487 5490 5493 5498 5503 5509 5516 5524 5532
5525 5522 5519 5517 5514 5512 5511 5510 5509 5509 5508 5507 5506 5504 5501 5499 5496 5492 5489 5486 5483 5482 5481 5481 5481 5481 5482 5483 5484 5485 5487 5489 5493 5498 5504 5511 5519 5527
5525 5523 5521 5519 5517 5515 5514 5514 5513 5512 5511 5510 5508 5506 5503 5500 5497 5494 5491 5488 5486 5485 5484 5484 5484 5484 5484 5484 5484 5484 5485 5486 5489 5493 5499 5506 5514 5523
5526 5525 5524 5522 5520 5519 5519 5518 5517 5516 5515 5513 5511 5508 5505 5503 5500 5497 5495 5492 5491 5489 5489 5488 5488 5488 5487 5487 5487 5486 5486 5486 5488 5491 5496 5503 5511 5520
5528 5527 5526 5525 5524 5523 5523 5522 5521 5520 5518 5516 5514 5512 5510 5507 5505 5503 5500 5498 5496 5495 5494 5494 5493 5493 5493 5492 5492 5491 5490 5491 5492 5494 5499 5505 5512 5520
5530 5530 5529 5529 5528 5527 5526 5525 5524 5523 5521 5520 5518 5517 5515 5513 5511 5509 5506 5504 5502 5501 5500 5500 5500 5499 5500 5500 5498 5497 5497 5498 5500 5502 5506 5512 5518 5525
5533 5533 5533 5532 5532 5531 5530 5529 5528 5527 5525 5524 5523 5522 5521 5519 5518 5516 5514 5512 5510 5508 5507 5507 5506 5506 5507 5507 5507 5505 5505 5507 5509 5512 5515 5520 5526 5533
5536 5537 5537 5536 5536 5535 5534 5533 5532 5531 5530 5529 5528 5528 5527 5526 5525 5523 5522 5520 5518 5516 5515 5514 5514 5514 5514 5515 5516 5515 5515 5516 5518 5521 5525 5530 5535 5541
5540 5540 5540 5540 5539 5539 5538 5537 5536 5535 5535 5534 5534 5533 5533 5533 5532 5531 5530 5529 5527 5526 5524 5523 5523 5522 5522 5523 5524 5524 5525 5526 5528 5531 5533 5538 5543 5548
5543 5544 5544 5544 5543 5542 5542 5541 5540 5540 5540 5540 5539 5539 5539 5539 5539 5539 5538 5537 5536 5535 5535 5534 5533 5532 5532 5533 5534 5534 5535 5536 5538 5541 5544 5547 5550 5555